This is the latest recevied weather packets stored in our database for station/object KC1TEM-13. If no packets are shown the sender has not sent any weather packets the latest 10 day(s).
| Time | Temp. | Humidity | Pressure | Rain* | Wind** | Luminosity | Snow |
|---|---|---|---|---|---|---|---|
| 1777874702 | 4.44° C | 67% | 1010.3 hPa | 0 mm | - | 0 W/m² | - |
| 1777874398 | 3.89° C | 70% | 1010.5 hPa | 0 mm | - | 0 W/m² | - |
| 1777874097 | 3.89° C | 68% | 1010.4 hPa | 0 mm | - | 0 W/m² | - |
| 1777873794 | 3.33° C | 73% | 1010.4 hPa | 0 mm | - | 0 W/m² | - |
| 1777873491 | 3.33° C | 76% | 1010.5 hPa | 0 mm | - | 0 W/m² | - |
| 1777873188 | 2.78° C | 76% | 1010.6 hPa | 0 mm | - | 0 W/m² | - |
| 1777872884 | 2.78° C | 75% | 1010.4 hPa | 0 mm | - | 0 W/m² | - |
| 1777872582 | 2.78° C | 75% | 1010.5 hPa | 0 mm | - | 0 W/m² | - |
| 1777872280 | 2.78° C | 73% | 1010.3 hPa | 0 mm | - | 0 W/m² | - |
| 1777871977 | 2.78° C | 74% | 1010.4 hPa | 0 mm | - | 0 W/m² | - |
| 1777871673 | 2.78° C | 72% | 1010.3 hPa | 0 mm | - | 0 W/m² | - |
| 1777871369 | 2.78° C | 74% | 1010.3 hPa | 0 mm | - | 0 W/m² | - |
| 1777871067 | 2.78° C | 73% | 1010.3 hPa | 0 mm | - | 0 W/m² | - |
| 1777870764 | 2.78° C | 74% | 1010.3 hPa | 0 mm | - | 0 W/m² | - |
| 1777870460 | 2.78° C | 74% | 1010.2 hPa | 0 mm | - | 0 W/m² | - |
| 1777870156 | 2.78° C | 75% | 1010.2 hPa | 0 mm | - | 0 W/m² | - |
| 1777869854 | 2.78° C | 75% | 1010.2 hPa | 0 mm | - | 0 W/m² | - |
| 1777869551 | 2.78° C | 73% | 1010 hPa | 0 mm | - | 0 W/m² | - |
| 1777869248 | 2.78° C | 73% | 1010.4 hPa | 0 mm | - | 0 W/m² | - |
| 1777868945 | 2.78° C | 74% | 1010.3 hPa | 0 mm | - | 0 W/m² | - |
| 1777868641 | 2.78° C | 73% | 1010.1 hPa | 0 mm | - | 0 W/m² | - |
| 1777868338 | 2.78° C | 74% | 1010.2 hPa | 0 mm | - | 0 W/m² | - |
| 1777868034 | 2.78° C | 73% | 1010.2 hPa | 0 mm | - | 0 W/m² | - |
| 1777867730 | 2.78° C | 73% | 1010.3 hPa | 0 mm | - | 0 W/m² | - |
| 1777867428 | 2.78° C | 74% | 1010.1 hPa | 0 mm | - | 0 W/m² | - |
* Rain latest hour (hover to see other rain measurements)
** Current wind speed in m/s (hover to see current wind gust speed)